K3TLB Weather Reports


time (UTC)temp
F
wind
direction
speed
knots
gust
knots
rain 1hr
in
rain 24hr
in
rain mn
in
humidity
%
barometer
mb
20260506024452 71 180 4.3 8.7 0.00 0.00 0.00 48 1008.5
20260506023949 71 218 4.3 8.7 0.00 0.00 0.00 47 1008.6
20260506023717 72 186 6.1 13.0 0.00 0.00 0.00 47 1008.7
20260506022944 72 165 7.0 13.0 0.00 0.00 0.00 46 1008.7
20260506022445 72 211 7.0 11.3 0.00 0.00 0.00 47 1008.8
20260506021945 72 180 6.1 10.4 0.00 0.00 0.00 47 1008.7
20260506021445 72 194 5.2 9.6 0.00 0.00 0.00 47 1008.6
20260506020939 72 181 5.2 11.3 0.00 0.00 0.00 47 1008.7
20260506020439 72 215 6.1 11.3 0.00 0.00 0.00 47 1008.7
20260506015940 72 175 5.2 9.6 0.00 0.00 0.00 47 1008.6
20260506015439 72 194 5.2 11.3 0.00 0.00 0.00 48 1008.5
20260506014939 72 179 3.5 11.3 0.00 0.00 0.00 48 1008.6
20260506014438 72 180 2.6 8.7 0.00 0.00 0.00 48 1008.6
20260506013937 72 190 3.5 8.7 0.00 0.00 0.00 47 1008.6
20260506013436 73 183 2.6 7.8 0.00 0.00 0.00 47 1008.5
20260506012936 73 174 0.9 6.1 0.00 0.00 0.00 47 1008.5
20260506012435 73 175 0.9 6.1 0.00 0.00 0.00 46 1008.4
20260506011933 73 171 0.9 8.7 0.00 0.00 0.00 46 1008.4
20260506011434 73 179 1.7 8.7 0.00 0.00 0.00 45 1008.2
20260506011157 74 170 3.5 8.7 0.00 0.00 0.00 45 1008.1
20260506010427 74 182 3.5 8.7 0.00 0.00 0.00 45 1008.1
20260506010158 74 176 2.6 8.7 0.00 0.00 0.00 45 1008.1
20260506005427 74 171 2.6 9.6 0.00 0.00 0.00 44 1008.0
20260506004927 75 184 4.3 9.6 0.00 0.00 0.00 44 1007.9
20260506004427 75 189 4.3 9.6 0.00 0.00 0.00 43 1007.8
20260506004153 75 186 4.3 9.6 0.00 0.00 0.00 43 1007.8
20260506003422 76 190 4.3 11.3 0.00 0.00 0.00 42 1007.6
20260506002922 76 192 3.5 13.0 0.00 0.00 0.00 42 1007.6
20260506002653 76 202 5.2 13.0 0.00 0.00 0.00 42 1007.5
20260506001921 76 171 7.0 13.0 0.00 0.00 0.00 41 1007.4
20260506001421 77 209 7.8 13.0 0.00 0.00 0.00 41 1007.3
20260506000915 77 182 7.0 14.8 0.00 0.00 0.00 40 1007.3
20260506000416 77 209 6.1 14.8 0.00 0.00 0.00 40 1007.3
20260506000146 77 194 7.0 16.5 0.00 0.00 0.00 40 1007.3
20260505235646 77 234 7.0 16.5 0.00 0.00 0.00 40 1007.4
20260505235146 78 205 7.0 16.5 0.00 0.00 0.00 40 1007.3
20260505235034 78 194 9.6 17.4 0.00 0.00 0.00 40 1007.2
20260505234141 78 178 10.4 19.1 0.00 0.00 0.00 39 1007.1
20260505233411 78 208 9.6 19.1 0.00 0.00 0.00 39 1007.1
20260505232907 78 167 10.4 20.9 0.00 0.00 0.00 39 1007.2
20260505232408 78 248 10.4 20.9 0.00 0.00 0.00 40 1007.1
20260505231909 78 163 10.4 19.1 0.00 0.00 0.00 39 1007.1
20260505231408 78 179 9.6 17.4 0.00 0.00 0.00 39 1007.1
20260505230904 79 192 9.6 17.4 0.00 0.00 0.00 40 1007.2
20260505230405 79 187 10.4 18.2 0.00 0.00 0.00 40 1007.1
20260505225903 79 184 10.4 18.2 0.00 0.00 0.00 41 1007.0
20260505225403 79 197 7.0 14.8 0.00 0.00 0.00 41 1007.0
20260505224902 79 198 5.2 13.9 0.00 0.00 0.00 41 1007.0
20260505224403 79 192 7.8 15.6 0.00 0.00 0.00 42 1007.0
20260505223856 79 178 8.7 18.2 0.00 0.00 0.00 43 1006.9
20260505223357 80 221 7.8 18.2 0.00 0.00 0.00 42 1006.9
20260505222857 80 201 8.7 19.1 0.00 0.00 0.00 43 1006.9
20260505222402 80 215 8.7 17.4 0.00 0.00 0.00 44 1007.1
20260505222357 80 223 8.7 19.1 0.00 0.00 0.00 42 1007.0
20260505221358 81 184 11.3 25.2 0.00 0.00 0.00 41 1006.9
20260505220851 80 227 12.2 25.2 0.00 0.00 0.00 41 1007.1
20260505220350 80 181 9.6 20.0 0.00 0.00 0.00 41 1007.2
20260505215849 80 178 7.8 20.0 0.00 0.00 0.00 43 1007.1
20260505215351 80 219 8.7 19.1 0.00 0.00 0.00 43 1007.1
20260505214851 80 211 8.7 18.2 0.00 0.00 0.00 43 1007.2
20260505214350 80 182 10.4 18.2 0.00 0.00 0.00 42 1007.2
20260505213846 80 216 12.2 26.9 0.00 0.00 0.00 42 1007.2
20260505213346 80 197 13.0 26.9 0.00 0.00 0.00 42 1007.0
20260505212846 80 188 12.2 26.1 0.00 0.00 0.00 41 1007.1
20260505212346 81 188 11.3 25.2 0.00 0.00 0.00 41 1006.9
20260505211845 81 240 12.2 21.7 0.00 0.00 0.00 42 1007.0
20260505211345 81 223 13.0 21.7 0.00 0.00 0.00 41 1007.0
20260505210841 81 198 12.2 26.1 0.00 0.00 0.00 41 1006.8
20260505210341 81 209 11.3 26.1 0.00 0.00 0.00 44 1006.8
20260505205841 81 193 11.3 21.7 0.00 0.00 0.00 44 1006.8
20260505205341 81 206 11.3 20.9 0.00 0.00 0.00 41 1007.0
20260505204838 81 190 11.3 24.3 0.00 0.00 0.00 43 1007.0
20260505204340 81 208 11.3 24.3 0.00 0.00 0.00 41 1006.9
20260505203835 81 197 11.3 23.5 0.00 0.00 0.00 42 1006.9
20260505203335 81 200 13.9 26.9 0.00 0.00 0.00 45 1007.1
20260505202835 81 173 15.6 26.9 0.00 0.00 0.00 42 1006.9
20260505202335 81 184 14.8 24.3 0.00 0.00 0.00 43 1007.0
20260505201832 81 188 13.9 25.2 0.00 0.00 0.00 43 1007.0
20260505201333 81 221 10.4 25.2 0.00 0.00 0.00 47 1007.1
20260505200831 81 181 9.6 19.1 0.00 0.00 0.00 45 1007.1
20260505200601 81 190 10.4 21.7 0.00 0.00 0.00 45 1007.2
20260505195831 81 215 8.7 21.7 0.00 0.00 0.00 43 1007.2
20260505195328 81 221 9.6 20.9 0.00 0.00 0.00 46 1007.3
20260505194826 81 196 9.6 20.9 0.00 0.00 0.00 45 1007.3
20260505194327 81 207 11.3 20.9 0.00 0.00 0.00 44 1007.4
20260505193825 81 199 13.9 25.2 0.00 0.00 0.00 46 1007.3
20260505193324 80 174 13.9 25.2 0.00 0.00 0.00 45 1007.3
20260505192825 81 192 12.2 21.7 0.00 0.00 0.00 42 1007.5
20260505192556 81 227 11.3 26.1 0.00 0.00 0.00 44 1007.7
20260505192443 81 215 13.0 26.1 0.00 0.00 0.00 44 1007.8
20260505191553 81 217 14.8 26.1 0.00 0.00 0.00 45 1007.7
20260505190821 81 242 12.2 26.1 0.00 0.00 0.00 42 1007.7
20260505190322 81 200 12.2 20.0 0.00 0.00 0.00 44 1007.7
20260505190058 81 211 11.3 20.0 0.00 0.00 0.00 44 1008.1
20260505185823 81 175 13.9 20.0 0.00 0.00 0.00 44 1007.8
20260505184818 81 182 9.6 19.1 0.00 0.00 0.00 45 1008.1
20260505184317 81 221 7.8 17.4 0.00 0.00 0.00 46 1008.1
20260505184048 81 220 10.4 21.7 0.00 0.00 0.00 46 1008.1
20260505183317 80 184 11.3 21.7 0.00 0.00 0.00 44 1008.2
20260505182818 81 207 9.6 20.9 0.00 0.00 0.00 48 1008.2
20260505182544 80 207 6.1 20.9 0.00 0.00 0.00 45 1008.3
20260505181814 81 234 7.0 20.0 0.00 0.00 0.00 45 1008.2
20260505181313 81 234 11.3 21.7 0.00 0.00 0.00 44 1008.1
20260505180814 81 258 12.2 21.7 0.00 0.00 0.00 46 1008.2
20260505180314 80 202 13.0 24.3 0.00 0.00 0.00 45 1008.5
20260505175814 81 213 12.2 24.3 0.00 0.00 0.00 44 1008.5
20260505175309 80 192 11.3 20.9 0.00 0.00 0.00 47 1008.5
20260505174809 80 215 13.0 23.5 0.00 0.00 0.00 46 1008.4
20260505174309 80 181 12.2 23.5 0.00 0.00 0.00 44 1008.5
20260505173810 80 202 10.4 20.9 0.00 0.00 0.00 45 1008.5
20260505173542 80 258 8.7 20.9 0.00 0.00 0.00 49 1008.5
20260505172810 80 215 7.0 18.2 0.00 0.00 0.00 46 1008.5
20260505172541 80 215 8.7 18.2 0.00 0.00 0.00 51 1008.5
20260505171810 80 197 10.4 20.9 0.00 0.00 0.00 47 1008.7
20260505171540 80 208 10.4 20.9 0.00 0.00 0.00 45 1008.7
20260505171035 80 229 11.3 20.0 0.00 0.00 0.00 44 1008.6
20260505170304 80 178 12.2 20.0 0.00 0.00 0.00 47 1008.7
20260505165805 80 201 12.2 20.0 0.00 0.00 0.00 46 1008.7
20260505165306 80 201 9.6 20.0 0.00 0.00 0.00 50 1009.0
20260505164805 78 217 7.8 20.0 0.00 0.00 0.00 55 1009.0
20260505164305 78 217 9.6 20.0 0.00 0.00 0.00 48 1009.3
20260505164300 79 240 8.7 20.0 0.00 0.00 0.00 49 1009.3
20260505163528 79 211 7.0 19.1 0.00 0.00 0.00 54 1009.4
20260505162758 78 219 7.8 19.1 0.00 0.00 0.00 54 1009.4
20260505162258 78 206 7.0 19.1 0.00 0.00 0.00 53 1009.4
20260505162030 78 205 8.7 19.1 0.00 0.00 0.00 56 1009.6
20260505161259 78 219 8.7 17.4 0.00 0.00 0.00 54 1009.6
20260505160751 78 235 7.8 17.4 0.00 0.00 0.00 52 1009.7
20260505160252 78 203 7.0 15.6 0.00 0.00 0.00 54 1009.7
20260505153252 77 150 5.2 14.8 0.00 0.00 0.00 56 1009.6
20260505153248 77 228 9.6 20.0 0.00 0.00 0.00 55 1009.7
20260505152246 76 216 3.5 14.8 0.00 0.00 0.00 55 1009.6
20260505151746 76 232 5.2 13.9 0.00 0.00 0.00 54 1009.5
20260505151246 76 99 6.1 14.8 0.00 0.00 0.00 59 1009.6
20260505150740 76 207 7.8 14.8 0.00 0.00 0.00 56 1009.6
20260505150240 76 204 6.1 13.9 0.00 0.00 0.00 55 1009.6
20260505140227 71 180 5.2 13.0 0.00 0.00 0.00 65 1010.3
20260505130218 66 169 0.0 0.0 0.00 0.00 0.00 73 1010.6
20260505124716 65 223 1.7 7.0 0.00 0.00 0.00 74 1010.6
20260505124215 64 174 0.9 6.1 0.00 0.00 0.00 73 1010.8
20260505123709 64 161 0.0 0.0 0.00 0.00 0.00 74 1010.8
20260505123209 64 183 0.0 0.0 0.00 0.00 0.00 78 1010.8
20260505122712 63 228 0.0 0.0 0.00 0.00 0.00 78 1010.6
20260505122210 62 113 0.0 0.0 0.00 0.00 0.00 79 1010.8
20260505121941 61 86 0.0 0.0 0.00 0.00 0.00 80 1010.5
20260505121210 60 86 0.0 0.0 0.00 0.00 0.00 81 1010.6
20260505120936 59 86 0.0 0.0 0.00 0.00 0.00 83 1010.5
20260505120201 58 86 0.0 0.0 0.00 0.00 0.00 84 1010.5
20260505115701 57 113 0.0 0.0 0.00 0.00 0.00 86 1010.6
20260505115158 57 113 0.0 0.0 0.00 0.00 0.00 86 1010.5
20260505114658 57 112 0.0 0.0 0.00 0.00 0.00 84 1010.4
20260505114156 57 121 0.0 0.0 0.00 0.00 0.00 84 1010.3
20260505113654 57 134 0.0 0.0 0.00 0.00 0.00 88 1010.4
20260505113153 56 98 0.0 0.0 0.00 0.00 0.00 89 1010.3
20260505112654 55 29 0.0 0.0 0.00 0.00 0.00 91 1010.2
20260505112152 54 43 0.0 0.0 0.00 0.00 0.00 91 1010.1
20260505111653 53 43 0.0 0.0 0.00 0.00 0.00 92 1010.1
20260505111146 53 74 0.0 0.0 0.00 0.00 0.00 95 1010.2
20260505110644 52 74 0.0 0.0 0.00 0.00 0.00 96 1010.2
20260505110413 51 344 0.0 0.0 0.00 0.00 0.00 95 1010.2
20260505102126 48 337 0.0 0.0 0.00 0.00 0.00 93 1009.8
20260505101623 48 325 0.0 0.0 0.00 0.00 0.00 93 1009.9
20260505101123 49 344 0.0 0.0 0.00 0.00 0.00 93 1009.8
20260505100624 49 348 0.0 0.0 0.00 0.00 0.00 94 1009.7
20260505100122 49 33 0.0 0.0 0.00 0.00 0.00 95 1009.6
20260505095621 48 26 0.0 0.0 0.00 0.00 0.00 94 1009.7
20260505095120 48 94 0.0 0.0 0.00 0.00 0.00 93 1009.6
20260505094618 49 78 0.0 0.0 0.00 0.00 0.00 94 1009.6
20260505094119 48 78 0.0 0.0 0.00 0.00 0.00 93 1009.8
20260505093617 49 108 0.0 0.0 0.00 0.00 0.00 92 1009.9
20260505092616 49 78 0.0 0.0 0.00 0.00 0.00 92 1009.4
20260505092108 49 71 0.0 0.0 0.00 0.00 0.00 93 1009.6
20260505091609 49 350 0.0 0.0 0.00 0.00 0.00 91 1009.6
20260505091108 49 350 0.0 0.0 0.00 0.00 0.00 91 1009.4
20260505090610 50 331 0.0 0.0 0.00 0.00 0.00 91 1009.3
20260505090109 50 333 0.0 0.0 0.00 0.00 0.00 92 1009.5
20260505085611 50 345 0.0 0.0 0.00 0.00 0.00 91 1009.3
20260505085106 50 46 0.0 0.0 0.00 0.00 0.00 91 1009.3
20260505084607 50 46 0.0 0.0 0.00 0.00 0.00 90 1009.3
20260505084108 50 351 0.0 0.0 0.00 0.00 0.00 90 1009.3
20260505083606 51 338 0.0 0.0 0.00 0.00 0.00 90 1009.4
20260505083106 51 5 0.0 0.0 0.00 0.00 0.00 90 1009.3
20260505082602 51 5 0.0 0.0 0.00 0.00 0.00 89 1009.3
20260505082102 51 5 0.0 0.0 0.00 0.00 0.00 88 1009.4
20260505081601 51 5 0.0 0.0 0.00 0.00 0.00 88 1009.4
20260505081102 52 19 0.0 0.0 0.00 0.00 0.00 88 1009.2
20260505080603 52 42 0.0 0.0 0.00 0.00 0.00 89 1009.3
20260505080058 52 41 0.0 0.0 0.00 0.00 0.00 89 1009.4
20260505075556 52 80 0.0 0.0 0.00 0.00 0.00 88 1009.4
20260505075057 52 83 0.0 0.0 0.00 0.00 0.00 88 1009.2
20260505074557 53 355 0.0 0.0 0.00 0.00 0.00 88 1009.2
20260505074056 53 338 0.0 0.0 0.00 0.00 0.00 87 1009.2
20260505073829 53 337 0.0 0.0 0.00 0.00 0.00 87 1009.2
20260505073052 53 337 0.0 0.0 0.00 0.00 0.00 88 1009.1
20260505072552 53 337 0.0 0.0 0.00 0.00 0.00 88 1009.0
20260505072053 53 38 0.0 0.0 0.00 0.00 0.00 88 1009.0
20260505071554 53 57 0.0 0.0 0.00 0.00 0.00 89 1008.9
20260505071052 53 55 0.0 0.0 0.00 0.00 0.00 89 1009.0
20260505070554 53 59 0.0 0.0 0.00 0.00 0.00 90 1009.0
20260505070048 54 46 0.0 0.0 0.00 0.00 0.00 90 1009.1
20260505065549 54 54 0.0 0.0 0.00 0.00 0.00 89 1009.0
20260505065049 54 43 0.0 0.0 0.00 0.00 0.00 89 1009.0
20260505064549 54 42 0.0 0.0 0.00 0.00 0.00 90 1009.1
20260505064049 54 67 0.0 0.0 0.00 0.00 0.00 89 1009.2
20260505063550 54 57 0.0 0.0 0.00 0.00 0.00 89 1009.1
20260505063044 54 47 0.0 0.0 0.00 0.00 0.00 88 1009.2
20260505062545 54 46 0.0 0.0 0.00 0.00 0.00 89 1009.2
20260505062046 55 52 0.0 0.0 0.00 0.00 0.00 88 1009.3
20260505061544 55 45 0.0 0.0 0.00 0.00 0.00 88 1009.3
20260505061046 55 44 0.0 0.0 0.00 0.00 0.00 87 1009.3
20260505060815 55 43 0.0 0.0 0.00 0.00 0.00 87 1009.4
20260505060041 55 54 0.0 0.0 0.00 0.00 0.00 86 1009.3
20260505055810 55 77 0.0 0.0 0.00 0.00 0.00 86 1009.3
20260505055037 55 77 0.0 0.0 0.00 0.00 0.00 85 1009.2
20260505054537 55 77 0.0 0.0 0.00 0.00 0.00 86 1009.2
20260505054030 55 77 0.0 0.0 0.00 0.00 0.00 85 1009.2
20260505053529 55 77 0.0 0.0 0.00 0.00 0.00 84 1009.3
20260505053027 55 111 0.0 0.0 0.00 0.00 0.00 84 1009.3
20260505052529 56 136 0.0 0.0 0.00 0.00 0.00 86 1009.4
20260505052525 55 109 0.0 0.0 0.00 0.00 0.00 84 1009.3
20260505051523 56 59 0.0 0.0 0.00 0.00 0.00 85 1009.4
20260505051020 56 59 0.0 0.0 0.00 0.00 0.00 85 1009.3
20260505050520 56 59 0.0 0.0 0.00 0.00 0.00 84 1009.4
20260505041509 57 197 0.0 0.0 0.00 0.00 0.00 75 1009.2
20260505041008 58 197 0.0 0.0 0.00 0.00 0.00 73 1009.2
20260505040510 58 197 0.0 0.0 0.00 0.00 0.00 73 1009.1
20260505040009 58 197 0.0 0.0 0.00 0.00 0.00 72 1009.1
20260505035508 59 195 0.0 0.0 0.00 0.00 0.00 70 1009.0
20260505035007 59 173 0.0 0.0 0.00 0.00 0.00 70 1009.0
20260505034504 60 158 0.0 0.0 0.00 0.00 0.00 70 1008.9
20260505034004 60 184 0.0 0.0 0.00 0.00 0.00 69 1008.9
20260505033505 60 184 0.0 0.0 0.00 0.00 0.00 67 1009.0
20260505033003 61 194 0.0 0.0 0.00 0.00 0.00 67 1009.0
20260505032501 61 202 0.0 0.0 0.00 0.00 0.00 67 1009.1
20260505032002 61 246 0.0 0.0 0.00 0.00 0.00 65 1009.2
20260505031455 61 198 0.0 7.0 0.00 0.00 0.00 67 1009.2
20260505030954 60 232 0.0 7.0 0.00 0.00 0.00 67 1009.2
20260505030454 60 220 0.9 7.0 0.00 0.00 0.00 69 1009.2
20260505025955 60 190 0.9 7.0 0.00 0.00 0.00 70 1009.1
20260505025456 60 230 0.0 0.0 0.00 0.00 0.00 70 1009.2
20260505024955 60 290 0.0 0.0 0.00 0.00 0.00 69 1009.2